星链-32386 (STARLINK-32386)

导读

STARLINK-32386是美国SpaceX公司于2024年9月20日发射的Starlink v2.0 mini卫星,隶属于星链星座项目,运行在近地轨道,轨道高度约475公里,轨道倾角53.157°,周期约94分钟。作为星链二代迷你卫星,它配备增强型相控阵天线,为全球尤其是基础设施匮乏地区提供高速低延迟卫星宽带互联网服务,助力星座组网,实现全球覆盖。

Basic Information
目录编号:
61213
目录名称:
STARLINK-32386
国际标识:
2024-171P
轨道中心:
EARTH
卫星名称:
星链-32386
卫星全名:
星链-32386 (STARLINK-32386)
卫星状态:
在轨 (已飞行632 天)
发射日期:
2024-09-20 UTC
国别 :
美国 (US)
星等 :
--
Orbit Information
数据来源 国际轨道数据 AOE轨道数据
星历时间 2026-06-14T05:15:42+0800
14小时前
查看轨道信息
2026-06-12T05:00:00+0800
2天前
查看轨道信息
半长轴 6840.858km 6840.842km
偏心率 0.0001331 0.0000233
轨道倾角 53.161° 53.166°
近地点辐角 95.623° 50.186°
升交点赤经 234.416° 243.818°
平近点角 264.493° 355.897°
近地点 461.81km 462.545km
远地点 463.632km 462.865km
周期 93.848分钟 93.848分钟
每日圈数 15.343941 15.343995
Detailed Information
固有亮度:
5
最大亮度:
2.5
卫星平台:
Starlink V1.0
覆盖范围:
全球
运营商:
太空探索技术公司
运营商所在国:
美国
制造商(研发单位):
太空探索技术公司
制造商所在国:
美国
使用方式:
暂无
Satellite Introduction
Starlink 计划是 SpaceX 推出的全球卫星互联网项目,通过发射低轨道卫星,为全球尤其是偏远地区提供高速、低延迟的互联网服务。自 2019 年起,Starlink 已部署数千颗卫星,旨在缩小全球数字鸿沟,推动互联网普及。该项目还为军事、航空等行业提供通信支持,带来广泛经济效益。
2D Orbit Map
3D Orbit Map
Orbit Altitude Analysis Chart
Orbit Inclination Analysis Chart
Orbit Comprehensive Analysis Chart
View Comprehensive Chart